Location: Ostrava
(49.8330°N, 18.2830°E)
Time: 11:55:50
(UTC+02:00)

Transit 2A - All Passes

Search period start: 24 May 2016 00:00
Search period end: 03 June 2016 00:00
Orbit: 593 x 967 km, 66.7° (Epoch: 22 May)

Date Brightness Start Highest point End Pass type
(mag) Time Alt. Az. Time Alt. Az. Time Alt. Az.
24 May - 07:37:15 10° SSE 07:41:34 27° ESE 07:46:17 10° NE daylight
24 May - 09:19:08 10° SW 09:24:22 62° NW 09:30:13 10° NNE daylight
24 May - 11:04:34 10° WNW 11:08:52 22° NNW 11:13:28 10° NNE daylight
24 May - 12:50:54 10° NW 12:54:26 16° N 12:58:06 10° NE daylight
24 May - 14:34:56 10° NNW 14:39:55 25° NNE 14:45:02 10° E daylight
24 May - 16:18:02 10° NW 16:24:17 69° NE 16:30:40 10° SE daylight
24 May - 18:01:50 10° NW 18:07:13 30° WSW 18:12:38 10° SSW daylight
25 May - 07:04:12 10° SSE 07:07:53 20° ESE 07:11:50 10° ENE daylight
25 May - 08:45:05 10° SW 08:50:20 81° NW 08:56:15 10° NE daylight
25 May - 10:29:59 10° W 10:34:34 25° NNW 10:39:30 10° NNE daylight
25 May - 12:16:28 10° NW 12:19:59 16° N 12:23:39 10° NE daylight
25 May - 14:00:57 10° NNW 14:05:36 22° NNE 14:10:22 10° ENE daylight
25 May - 15:44:05 10° NNW 15:50:13 54° NE 15:56:29 10° ESE daylight
25 May - 17:27:36 10° NW 17:33:26 40° WSW 17:39:18 10° S daylight
26 May - 06:31:38 10° SE 06:34:15 14° ESE 06:37:00 10° ENE daylight
26 May - 08:11:10 10° SSW 08:16:23 77° ESE 08:22:15 10° NE daylight
26 May - 09:55:28 10° W 10:00:17 30° NNW 10:05:32 10° NNE daylight
26 May - 11:41:56 10° NW 11:45:34 16° N 11:49:20 10° NNE daylight
26 May - 13:26:55 10° NNW 13:31:14 19° NNE 13:35:40 10° ENE daylight
26 May - 15:10:09 10° NNW 15:16:06 44° NE 15:22:11 10° ESE daylight
26 May - 16:53:29 10° NW 16:59:36 53° WSW 17:05:45 10° SSE daylight
26 May - 18:40:32 10° W 18:41:35 10° W 18:42:38 10° WSW daylight
27 May - 07:37:23 10° SSW 07:42:29 57° ESE 07:48:11 10° NE daylight
27 May - 09:21:03 10° WSW 09:26:05 36° NW 09:31:35 10° NNE daylight
27 May - 11:07:20 10° NW 11:11:08 17° NNW 11:15:08 10° NNE daylight
27 May - 12:52:49 10° NNW 12:56:50 18° NNE 13:00:58 10° NE daylight
27 May - 14:36:13 10° NNW 14:41:55 36° NE 14:47:46 10° ESE daylight
27 May - 16:19:25 10° NW 16:25:42 70° WSW 16:32:02 10° SSE daylight
27 May - 18:04:32 10° WNW 18:07:59 15° WSW 18:11:25 10° SW daylight
28 May - 07:03:47 10° S 07:08:40 41° ESE 07:14:04 10° NE daylight
28 May - 08:46:43 10° WSW 08:51:55 45° NW 08:57:39 10° NNE daylight
28 May - 10:32:42 10° WNW 10:36:44 19° NNW 10:41:01 10° NNE daylight
28 May - 12:18:38 10° NNW 12:22:25 17° N 12:26:18 10° NE daylight
28 May - 14:02:17 10° NNW 14:07:42 30° NNE 14:13:15 10° E daylight
28 May - 15:45:25 10° NW 15:51:45 89° WSW 15:58:09 10° SSE daylight
28 May - 17:29:47 10° WNW 17:34:19 21° WSW 17:38:52 10° SSW daylight
29 May - 06:30:23 10° S 06:34:54 30° ESE 06:39:51 10° NE daylight
29 May - 08:12:31 10° SW 08:17:48 58° NW 08:23:42 10° NNE daylight
29 May - 09:58:04 10° WNW 10:02:23 21° NNW 10:06:58 10° NNE daylight
29 May - 11:44:21 10° NNW 11:47:59 16° N 11:51:44 10° NE daylight
29 May - 13:28:20 10° NNW 13:33:26 26° NNE 13:38:40 10° E daylight
29 May - 15:11:26 10° NW 15:17:45 73° NE 15:24:08 10° SE daylight
29 May - 16:55:20 10° NW 17:00:37 28° WSW 17:05:51 10° SSW daylight
30 May - 05:57:15 10° SSE 06:01:12 22° ESE 06:05:28 10° ENE daylight
30 May - 07:38:26 10° SW 07:43:45 76° NW 07:49:43 10° NE daylight
30 May - 09:23:28 10° W 09:28:03 25° NNW 09:32:58 10° NNE daylight
30 May - 11:09:57 10° NW 11:13:32 16° N 11:17:16 10° NE daylight
30 May - 12:54:21 10° NNW 12:59:07 22° NNE 13:04:01 10° ENE daylight
30 May - 14:37:29 10° NNW 14:43:42 58° NE 14:50:00 10° SE daylight
30 May - 16:21:05 10° NW 16:26:50 37° WSW 16:32:35 10° S daylight
31 May - 05:24:30 10° SE 05:27:34 16° ESE 05:30:47 10° ENE daylight
31 May - 07:04:28 10° SSW 07:09:46 83° SE 07:15:44 10° NE daylight
31 May - 08:48:56 10° W 08:53:46 29° NNW 08:59:00 10° NNE daylight
31 May - 10:35:26 10° NW 10:39:06 16° N 10:42:54 10° NNE daylight
31 May - 12:20:19 10° NNW 12:24:46 20° NNE 12:29:19 10° ENE daylight
31 May - 14:03:33 10° NNW 14:09:35 46° NE 14:15:43 10° ESE daylight
31 May - 15:46:56 10° NW 15:53:01 49° WSW 15:59:06 10° S daylight
01 Jun - 04:52:53 10° ESE 04:53:58 11° E 04:55:05 10° E daylight
01 Jun - 06:30:39 10° SSW 06:35:52 62° ESE 06:41:41 10° NE daylight
01 Jun - 08:14:30 10° WSW 08:19:33 35° NW 08:25:03 10° NNE daylight
01 Jun - 10:00:51 10° NW 10:04:40 17° NNW 10:08:40 10° NNE daylight
01 Jun - 11:46:14 10° NNW 11:50:22 18° NNE 11:54:37 10° ENE daylight
01 Jun - 13:29:37 10° NNW 13:35:25 38° NE 13:41:21 10° ESE daylight
01 Jun - 15:12:52 10° NW 15:19:08 65° WSW 15:25:25 10° SSE daylight
01 Jun - 16:58:17 10° WNW 17:01:19 14° W 17:04:21 10° SW daylight
02 Jun - 05:57:00 10° S 06:02:01 45° ESE 06:07:35 10° NE daylight
02 Jun - 07:40:09 10° WSW 07:45:22 43° NW 07:51:07 10° NNE daylight
02 Jun - 09:26:13 10° WNW 09:30:16 19° NNW 09:34:32 10° NNE daylight
02 Jun - 11:12:04 10° NNW 11:15:57 17° N 11:19:57 10° NE daylight
02 Jun - 12:55:40 10° NNW 13:01:13 32° NE 13:06:52 10° E daylight
02 Jun - 14:38:50 10° NW 14:45:12 84° SW 14:51:35 10° SSE daylight
02 Jun - 16:23:22 10° WNW 16:27:41 19° WSW 16:31:58 10° SSW daylight
